Total_Precipitation_Accumulation
0.15 0.26 0.29 0.27 0.25 0.20 0.16 0.14 0.24 0.32 0.46 0.54 0.59 0.73 0.95 1.13 1.09 1.00 0.82 0.72 0.80 0.82 0.89 0.95 1.05 1.13 1.03 1.05 1.11 1.26 1.45 1.56 1.68 1.67 1.64 1.62 1.68 1.73 1.75 1.83 1.80 1.87 1.95 1.96
0.18 0.22 0.27 0.30 0.28 0.21 0.15 0.14 0.19 0.29 0.46 0.57 0.64 0.76 0.92 0.95 0.83 0.72 0.64 0.53 0.52 0.70 0.81 0.77 0.80 0.89 0.82 0.87 1.01 1.16 1.25 1.36 1.58 1.70 1.71 1.70 1.76 1.88 1.93 1.89 1.89 1.92 1.87 1.93
0.29 0.28 0.28 0.37 0.35 0.27 0.18 0.17 0.24 0.37 0.54 0.71 0.62 0.63 0.73 0.77 0.75 0.69 0.66 0.52 0.46 0.55 0.72 0.73 0.73 0.74 0.85 0.97 1.10 1.22 1.36 1.50 1.68 1.79 1.86 1.88 1.84 1.97 1.93 1.93 2.01 1.96 1.89 1.90
0.37 0.49 0.56 0.41 0.33 0.32 0.31 0.29 0.30 0.43 0.46 0.62 0.64 0.67 0.79 0.80 0.80 0.66 0.61 0.53 0.52 0.52 0.54 0.60 0.67 0.75 0.91 1.20 1.45 1.50 1.64 1.83 1.93 2.03 1.97 1.95 1.95 1.98 2.07 2.16 2.19 2.16 2.10 2.02
0.54 0.67 0.58 0.49 0.35 0.38 0.43 0.58 0.60 0.70 0.69 0.65 0.64 0.73 0.82 0.71 0.64 0.66 0.58 0.54 0.57 0.62 0.65 0.73 0.79 0.83 1.01 1.25 1.56 1.75 1.80 1.89 2.04 2.13 2.17 2.18 2.18 2.15 2.24 2.36 2.31 2.23 2.18 2.18
0.68 0.83 0.81 0.67 0.51 0.50 0.62 1.09 0.92 0.87 0.91 0.79 0.75 0.90 0.98 0.90 0.81 0.75 0.69 0.65 0.66 0.69 0.83 1.02 1.09 1.11 1.23 1.35 1.51 1.70 1.77 1.89 2.06 2.28 2.33 2.35 2.49 2.58 2.53 2.48 2.33 2.34 2.33 2.30
0.84 0.91 0.98 0.82 0.72 0.75 1.20 1.51 1.15 0.98 0.98 0.97 1.08 1.13 1.07 0.93 0.92 0.85 0.74 0.76 0.74 0.77 0.93 1.18 1.32 1.36 1.46 1.61 1.70 1.71 1.80 1.94 2.13 2.30 2.38 2.46 2.63 2.71 2.67 2.61 2.57 2.52 2.45 2.49
1.02 1.22 1.40 0.95 0.88 1.32 1.61 1.35 1.34 1.34 1.29 1.19 1.16 1.12 1.06 0.95 0.92 0.85 0.81 0.86 0.90 0.95 1.11 1.33 1.50 1.48 1.56 1.65 1.68 1.72 1.73 1.87 2.01 2.16 2.18 2.27 2.54 2.64 2.71 2.72 2.66 2.57 2.52 2.39
1.38 1.51 1.36 1.12 1.20 1.37 1.50 1.66 1.56 1.46 1.47 1.29 1.27 1.16 1.07 0.99 0.94 0.90 0.85 0.91 0.99 1.05 1.22 1.47 1.64 1.67 1.76 1.67 1.73 1.77 1.80 1.93 2.09 2.17 2.22 2.33 2.44 2.48 2.57 2.63 2.56 2.45 2.46 2.40
1.63 1.65 1.53 1.38 1.21 1.13 1.26 1.37 1.36 1.35 1.34 1.29 1.25 1.18 1.08 0.99 0.92 0.92 0.91 0.86 0.92 1.05 1.14 1.25 1.45 1.65 1.77 1.81 1.85 1.85 1.88 1.95 2.05 2.17 2.18 2.25 2.37 2.48 2.59 2.68 2.74 2.62 2.49 2.39
1.87 1.76 1.62 1.58 1.45 1.34 1.41 1.47 1.38 1.31 1.29 1.29 1.25 1.18 1.04 1.00 0.98 0.95 0.93 0.90 0.95 1.05 1.09 1.15 1.23 1.37 1.46 1.59 1.72 1.78 1.83 1.90 1.95 1.99 2.10 2.21 2.27 2.37 2.36 2.43 2.45 2.43 2.36 2.33
2.18 1.90 1.74 1.68 1.52 1.38 1.45 1.42 1.50 1.60 1.57 1.34 1.22 1.30 1.22 1.09 0.99 0.98 0.98 0.98 1.00 1.04 1.04 1.07 1.14 1.31 1.42 1.53 1.67 1.81 1.89 1.92 1.87 1.83 1.92 1.99 2.08 2.08 2.09 2.01 2.00 1.94 1.95 1.94
1.82 1.61 1.57 1.54 1.47 1.38 1.36 1.30 1.31 1.46 1.52 1.40 1.34 1.32 1.36 1.28 1.18 1.09 1.02 0.94 0.96 1.01 1.04 1.09 1.17 1.31 1.38 1.44 1.57 1.71 1.81 1.86 1.86 1.85 1.88 1.91 1.99 1.95 1.97 1.90 1.80 1.71 1.66 1.67
1.54 1.50 1.54 1.46 1.36 1.36 1.37 1.30 1.21 1.25 1.34 1.37 1.40 1.42 1.51 1.44 1.33 1.25 1.20 1.10 1.02 1.01 1.01 1.06 1.19 1.23 1.27 1.33 1.40 1.49 1.57 1.67 1.80 1.89 1.93 1.94 2.00 2.06 2.12 2.14 2.03 1.81 1.67 1.60
1.62 1.50 1.41 1.28 1.27 1.34 1.33 1.27 1.22 1.22 1.36 1.52 1.47 1.42 1.46 1.38 1.33 1.27 1.19 1.12 1.09 1.08 1.11 1.12 1.17 1.18 1.24 1.33 1.41 1.45 1.48 1.51 1.53 1.62 1.74 1.82 1.82 1.86 1.94 2.02 2.03 1.92 1.77 1.67
1.74 1.61 1.43 1.29 1.34 1.47 1.51 1.47 1.38 1.29 1.26 1.43 1.49 1.41 1.37 1.29 1.20 1.22 1.24 1.22 1.25 1.25 1.27 1.27 1.30 1.25 1.29 1.39 1.47 1.52 1.50 1.53 1.50 1.47 1.47 1.53 1.60 1.67 1.74 1.85 1.92 1.89 1.82 1.71
1.82 1.78 1.65 1.48 1.38 1.40 1.46 1.50 1.44 1.36 1.28 1.31 1.37 1.41 1.40 1.33 1.22 1.18 1.19 1.21 1.26 1.28 1.30 1.38 1.42 1.41 1.46 1.50 1.53 1.54 1.48 1.48 1.49 1.48 1.48 1.52 1.58 1.65 1.68 1.73 1.78 1.70 1.59 1.50
1.70 1.63 1.56 1.45 1.35 1.33 1.37 1.37 1.34 1.32 1.28 1.28 1.31 1.33 1.35 1.40 1.38 1.33 1.24 1.23 1.25 1.23 1.22 1.26 1.34 1.38 1.50 1.62 1.65 1.62 1.50 1.43 1.38 1.39 1.46 1.52 1.59 1.67 1.70 1.70 1.64 1.56 1.48 1.36
1.60 1.54 1.47 1.37 1.33 1.32 1.33 1.31 1.32 1.29 1.25 1.23 1.33 1.43 1.42 1.42 1.49 1.46 1.39 1.42 1.48 1.49 1.35 1.26 1.34 1.30 1.36 1.59 1.76 1.77 1.61 1.50 1.43 1.42 1.44 1.47 1.50 1.56 1.60 1.57 1.52 1.42 1.31 1.24
1.58 1.58 1.57 1.52 1.43 1.42 1.41 1.33 1.32 1.31 1.28 1.31 1.39 1.43 1.50 1.47 1.52 1.58 1.57 1.51 1.50 1.59 1.58 1.48 1.35 1.27 1.26 1.48 1.80 1.74 1.65 1.55 1.44 1.36 1.38 1.42 1.46 1.53 1.52 1.46 1.37 1.32 1.28 1.25
1.69 1.74 1.71 1.64 1.54 1.43 1.35 1.28 1.32 1.37 1.33 1.38 1.47 1.49 1.52 1.48 1.44 1.56 1.69 1.52 1.40 1.53 1.58 1.53 1.35 1.26 1.27 1.46 1.73 1.70 1.63 1.56 1.45 1.36 1.35 1.37 1.39 1.46 1.49 1.46 1.38 1.28 1.25 1.27
1.98 2.00 1.85 1.64 1.57 1.44 1.34 1.29 1.28 1.30 1.33 1.41 1.42 1.45 1.60 1.61 1.55 1.53 1.51 1.48 1.41 1.51 1.49 1.41 1.34 1.27 1.24 1.32 1.43 1.50 1.44 1.36 1.28 1.22 1.20 1.25 1.31 1.39 1.43 1.45 1.45 1.40 1.38 1.38
2.05 1.97 1.84 1.66 1.58 1.41 1.22 1.19 1.20 1.23 1.32 1.42 1.51 1.60 1.81 1.83 1.73 1.76 1.57 1.27 1.23 1.37 1.33 1.26 1.30 1.26 1.21 1.17 1.29 1.37 1.32 1.30 1.23 1.13 1.08 1.12 1.21 1.30 1.37 1.33 1.33 1.36 1.32 1.27
1.84 1.77 1.67 1.54 1.55 1.49 1.39 1.30 1.27 1.31 1.36 1.40 1.47 1.63 1.87 1.99 1.77 1.48 1.38 1.31 1.26 1.24 1.18 1.21 1.23 1.22 1.20 1.13 1.26 1.36 1.35 1.33 1.31 1.26 1.16 1.19 1.22 1.25 1.29 1.25 1.22 1.21 1.19 1.20
1.84 1.69 1.56 1.57 1.68 1.69 1.58 1.48 1.46 1.51 1.52 1.49 1.48 1.58 1.73 1.95 1.91 1.50 1.23 1.11 1.17 1.16 1.10 1.20 1.25 1.25 1.11 1.03 1.13 1.30 1.41 1.44 1.45 1.38 1.32 1.38 1.40 1.41 1.38 1.32 1.33 1.33 1.29 1.24
1.79 1.74 1.68 1.68 1.68 1.72 1.71 1.72 1.79 1.82 1.85 1.89 1.84 1.74 1.80 1.89 1.76 1.51 1.25 1.07 1.08 1.16 1.12 1.20 1.26 1.28 1.17 1.14 1.18 1.27 1.36 1.47 1.49 1.45 1.42 1.41 1.42 1.48 1.51 1.47 1.44 1.42 1.33 1.26
1.72 1.64 1.62 1.63 1.64 1.71 1.82 1.97 2.07 2.08 2.12 2.25 2.23 1.94 1.83 1.88 1.84 1.69 1.47 1.32 1.31 1.33 1.32 1.29 1.21 1.18 1.24 1.33 1.33 1.27 1.30 1.41 1.43 1.44 1.50 1.46 1.43 1.41 1.42 1.39 1.35 1.31 1.20 1.11